Location: Westminster
(33.3626°N, 96.4619°W)
Time: 20:34:14
(UTC+00:00)

Cosmos 1515 Rocket - Pass Details

Date: 29 June 2022
Orbit: 604 x 630 km, 82.5° (Epoch: 17 August)

Event Time Altitude Azimuth Distance (km) Brightness Sun altitude
Rises 09:04:06 0° 9° (N) 2,899 8.0 -22.5°
Reaches altitude 10° 09:06:43 10° 24° (NNE) 1,984 7.2 -22.1°
Maximum altitude 09:10:15 23° 77° (ENE) 1,303 5.8 -21.7°
Drops below altitude 10° 09:13:44 10° 131° (SE) 1,961 6.1 -21.2°
Enters shadow 09:15:48 - 143° (SE) 2,674 6.7 -20.9°
